Stations météo

réclame
Mon MeteoGroup
Benavente, Espagne (8056): Température de l'air & dewpoint: 19.11.2017 02:00:00 - 25.11.2017 02:00:00 (CET)Benavente, Espagne (8056): Vitesse du vent & gusts: 19.11.2017 02:00:00 - 25.11.2017 02:00:00 (CET)Benavente, Espagne (8056): Direction du vent: 19.11.2017 02:00:00 - 25.11.2017 02:00:00 (CET)Benavente, Espagne (8056): reduced air pressure: 19.11.2017 02:00:00 - 25.11.2017 02:00:00 (CET)Benavente, Espagne (8056): visibility: 19.11.2017 02:00:00 - 25.11.2017 02:00:00 (CET)Benavente, Espagne (8056): Ensoleillement: 19.11.2017 02:00:00 - 25.11.2017 02:00:00 (CET)Benavente, Espagne (8056): Quantités de précipitations: 19.11.2017 02:00:00 - 25.11.2017 02:00:00 (CET)
Date & Time tt [°C] td [°C] ff [km/h] ff [knt] fx [km/h] fx [knt] dd ppp [hPa] vv [km] sd [min] rr [mm]
25.11.2017 02:00:00 - - - - - - - - - - -
25.11.2017 01:00:00 12,0 10,5 5 3 21 11 SSW 1016,8 16 0 -
25.11.2017 00:00:00 12,2 10,6 10 6 28 15 SSW 1016,7 6 0 4,2
24.11.2017 23:00:00 12,6 10,2 9 5 23 13 SSW 1016,2 20 0 0,0
24.11.2017 22:00:00 12,1 10,2 8 4 27 15 S 1016,4 20 0 0,0
24.11.2017 21:00:00 12,4 10,2 11 6 23 12 S 1016,0 20 0 0,0
24.11.2017 20:00:00 13,0 10,2 9 5 21 11 S 1016,2 20 0 0,0
24.11.2017 19:00:00 13,3 8,5 6 3 18 10 SSW 1016,1 20 0 -
24.11.2017 18:00:00 14,1 8,1 12 7 26 14 SW 1015,8 20 2 0,0
24.11.2017 17:00:00 14,9 8,7 10 5 31 17 SW 1015,5 20 9 0,0
24.11.2017 16:00:00 14,5 8,3 15 8 30 16 SW 1015,5 20 0 0,0
24.11.2017 15:00:00 14,4 7,7 14 8 33 18 SW 1016,1 20 2 0,0
24.11.2017 14:00:00 13,8 8,7 16 8 36 19 SW 1016,8 20 0 0,0
24.11.2017 13:00:00 13,4 9,3 15 8 31 17 SSW 1017,1 20 0 -
24.11.2017 12:00:00 13,1 9,3 18 10 33 18 SW 1017,6 20 7 0,0
24.11.2017 11:00:00 12,0 9,4 14 7 33 18 SSW 1017,9 20 0 0,0
24.11.2017 10:00:00 11,4 9,2 10 6 22 12 SSW 1017,8 20 0 0,0
24.11.2017 09:00:00 11,1 9,0 11 6 26 14 SSW 1017,2 20 0 0,0
24.11.2017 08:00:00 11,0 9,0 10 6 25 14 SSW 1016,7 20 0 0,0
24.11.2017 07:00:00 10,6 9,2 11 6 25 13 SSW 1016,7 20 0 -
24.11.2017 06:00:00 9,6 8,3 7 4 15 8 SSW 1016,7 8 0 0,0
24.11.2017 05:00:00 9,4 7,7 2 1 12 6 SSE 1016,8 12 0 0,2
24.11.2017 04:00:00 9,5 7,4 8 4 15 8 S 1017,2 8 0 1,2
24.11.2017 03:00:00 9,8 7,3 5 3 14 7 S 1017,1 20 0 0,0
24.11.2017 02:00:00 10,4 7,1 5 3 22 12 S 1017,2 20 0 0,0
24.11.2017 01:00:00 11,1 3,6 3 2 10 5 S 1017,8 20 0 -
24.11.2017 00:00:00 11,0 4,5 1 1 11 6 ESE 1017,6 20 0 0,0
23.11.2017 23:00:00 11,2 3,9 2 1 10 5 S 1017,0 20 0 0,0
23.11.2017 22:00:00 12,6 3,8 6 3 21 12 SSW 1016,5 20 0 0,0
23.11.2017 21:00:00 13,5 4,6 6 3 21 11 SSW 1016,6 20 0 0,0
23.11.2017 20:00:00 13,7 5,6 11 6 22 12 SSW 1016,3 20 0 0,0
23.11.2017 19:00:00 13,6 7,1 6 3 13 7 SSW 1015,9 20 0 -
23.11.2017 18:00:00 14,8 6,8 5 3 30 16 WSW 1015,2 20 0 0,0
23.11.2017 17:00:00 16,0 6,7 21 11 41 22 SW 1014,4 20 4 0,0
23.11.2017 16:00:00 15,8 6,8 14 7 35 19 SW 1014,3 20 0 0,0
23.11.2017 15:00:00 15,1 9,0 14 7 33 18 SW 1014,5 20 0 0,0
23.11.2017 14:00:00 14,1 9,6 14 7 32 18 SSW 1015,0 20 0 0,0
23.11.2017 13:00:00 13,4 9,7 17 9 34 18 SW 1015,3 20 0 -
23.11.2017 12:00:00 13,3 9,3 13 7 29 16 SW 1015,4 20 1 0,0
23.11.2017 11:00:00 12,3 8,5 15 8 35 19 SSW 1015,3 20 0 0,0
23.11.2017 10:00:00 12,1 7,8 11 6 30 16 SSW 1014,7 20 4 0,0
23.11.2017 09:00:00 11,1 6,7 7 4 27 14 SSW 1014,3 20 0 0,0
23.11.2017 08:00:00 11,1 5,8 9 5 27 14 SSW 1013,4 20 0 0,0
23.11.2017 07:00:00 11,0 5,3 10 6 25 13 SSW 1012,5 20 0 -
23.11.2017 06:00:00 10,7 4,3 9 5 23 12 S 1012,0 20 0 0,0
23.11.2017 05:00:00 10,6 3,2 7 4 16 9 S 1012,0 20 0 0,0
23.11.2017 04:00:00 9,5 1,7 5 3 13 7 S 1011,9 20 0 0,0
23.11.2017 03:00:00 8,4 0,9 3 2 11 6 S 1011,7 20 0 0,0
23.11.2017 02:00:00 8,5 0,9 5 3 11 6 NE 1012,0 20 0 0,0
23.11.2017 01:00:00 11,1 0,9 8 4 24 13 S 1011,2 20 0 -
23.11.2017 00:00:00 11,3 0,4 12 7 25 13 SSW 1011,3 20 0 0,0
22.11.2017 23:00:00 11,9 -0,3 12 6 29 16 S 1011,0 20 0 0,0
22.11.2017 22:00:00 12,6 -0,7 10 6 31 17 SSW 1010,6 20 0 0,0
22.11.2017 21:00:00 12,9 -1,2 11 6 28 15 SSW 1010,5 20 0 0,0
22.11.2017 20:00:00 13,6 -1,7 13 7 34 18 SSW 1009,9 20 0 0,0
22.11.2017 19:00:00 14,2 -1,4 13 7 28 15 S 1009,6 15 0 -
22.11.2017 18:00:00 12,3 0,6 2 1 14 8 S 1010,4 20 0 0,0
22.11.2017 17:00:00 13,4 0,0 8 4 23 12 S 1010,3 20 0 0,0
22.11.2017 16:00:00 14,3 -0,5 10 5 18 10 S 1010,5 20 16 0,0
22.11.2017 15:00:00 14,5 -1,2 5 3 19 10 SSE 1011,2 20 51 0,0
22.11.2017 14:00:00 12,3 -1,2 6 4 16 9 SSW 1013,0 20 57 0,0
22.11.2017 13:00:00 11,0 -1,2 5 3 13 7 S 1014,2 20 54 -
22.11.2017 12:00:00 7,2 -1,4 5 3 9 5 S 1016,4 19 60 0,0
22.11.2017 11:00:00 3,9 -1,7 2 1 8 4 E 1017,7 12 60 0,0
22.11.2017 10:00:00 1,0 -2,5 4 2 7 4 NE 1019,3 20 38 0,0
22.11.2017 09:00:00 -2,5 -4,5 2 1 5 3 NW 1020,8 11 0 0,0
22.11.2017 08:00:00 -2,6 -4,8 3 1 5 3 NNW 1020,5 13 0 0,0
22.11.2017 07:00:00 -2,1 -4,2 2 1 6 3 NNE 1020,7 14 0 -
22.11.2017 06:00:00 -2,2 -4,2 4 2 6 3 NNW 1020,6 14 0 0,0
22.11.2017 05:00:00 -2,2 -4,2 1 1 6 3 NNW 1021,1 12 0 0,0
22.11.2017 04:00:00 -1,6 -3,9 2 1 6 3 NNE 1021,5 11 0 0,0
22.11.2017 03:00:00 -1,1 -3,6 2 1 4 2 N 1021,8 12 0 0,0
22.11.2017 02:00:00 0,0 -3,3 2 1 7 4 NNE 1021,8 12 0 0,0
22.11.2017 01:00:00 1,0 -2,5 4 2 12 6 N 1022,1 14 0 -
22.11.2017 00:00:00 1,1 -2,7 6 4 11 6 N 1022,5 13 0 0,0
21.11.2017 23:00:00 2,0 -2,2 3 2 7 4 NNW 1022,5 16 0 0,0
21.11.2017 22:00:00 3,4 -2,0 3 2 6 3 ENE 1021,8 14 0 0,0
21.11.2017 21:00:00 3,7 -2,0 0 0 5 3 N 1021,7 17 0 0,0
21.11.2017 20:00:00 4,4 -2,0 2 1 5 3 NW 1021,9 17 0 0,0
21.11.2017 19:00:00 6,3 -2,2 0 0 5 3 N 1021,5 19 0 -
21.11.2017 18:00:00 11,9 -2,0 4 2 11 6 SSE 1019,5 20 28 0,0
21.11.2017 17:00:00 14,8 -2,2 5 3 13 7 SSE 1019,1 20 58 0,0
21.11.2017 16:00:00 15,1 -2,5 6 3 12 6 S 1019,4 20 60 0,0
21.11.2017 15:00:00 13,8 -2,7 4 2 11 6 S 1020,3 20 60 0,0
21.11.2017 14:00:00 11,8 -2,0 4 2 10 5 SSE 1021,5 20 60 0,0
21.11.2017 13:00:00 9,9 -1,7 3 1 8 4 S 1022,9 20 60 -
21.11.2017 12:00:00 7,8 -1,4 1 1 8 4 SW 1024,7 20 60 0,0
21.11.2017 11:00:00 4,2 -2,0 2 1 7 4 N 1026,1 20 60 0,0
21.11.2017 10:00:00 1,1 -2,7 5 3 11 6 E 1027,2 18 38 0,0
21.11.2017 09:00:00 -2,6 -5,1 2 1 5 3 SW 1028,3 20 0 0,0
21.11.2017 08:00:00 -2,7 -5,1 3 2 8 5 N 1028,1 20 0 0,0
21.11.2017 07:00:00 -3,0 -5,4 3 2 4 2 NNE 1028,0 20 0 -
21.11.2017 06:00:00 -2,1 -4,8 0 0 4 2 N 1027,6 20 0 0,0
21.11.2017 05:00:00 -1,3 -3,9 5 3 8 5 N 1027,0 20 0 0,0
21.11.2017 04:00:00 -1,5 -4,2 2 1 11 6 NNW 1027,5 20 0 0,0
21.11.2017 03:00:00 -0,8 -4,2 3 1 10 5 NNE 1027,2 19 0 0,0
21.11.2017 02:00:00 0,4 -3,3 5 3 11 6 NNW 1027,2 20 0 0,0
21.11.2017 01:00:00 1,1 -3,3 2 1 8 4 N 1027,1 20 0 -
21.11.2017 00:00:00 2,0 -3,0 4 2 9 5 N 1026,9 20 0 0,0
20.11.2017 23:00:00 1,1 -3,9 3 2 5 3 N 1027,1 19 0 0,0
20.11.2017 22:00:00 2,5 -3,3 1 1 5 3 N 1026,5 16 0 0,0
20.11.2017 21:00:00 3,5 -3,9 2 1 4 2 WNW 1026,1 16 0 0,0
20.11.2017 20:00:00 5,3 -4,2 1 1 5 3 NNW 1025,2 20 0 0,0
20.11.2017 19:00:00 7,6 -3,3 3 2 5 3 SSW 1023,9 20 0 -
20.11.2017 18:00:00 11,5 -4,2 2 1 10 6 SSW 1022,5 20 13 0,0
20.11.2017 17:00:00 14,5 -4,5 6 4 14 7 S 1021,6 20 54 0,0
20.11.2017 16:00:00 15,3 -4,8 6 3 15 8 S 1021,5 20 60 0,0
20.11.2017 15:00:00 15,7 -3,9 6 3 15 8 S 1021,7 20 60 0,0
20.11.2017 14:00:00 13,9 -4,5 4 2 10 5 SSE 1023,1 20 60 0,0
20.11.2017 13:00:00 11,3 -4,2 3 2 8 5 ENE 1024,8 20 60 -
20.11.2017 12:00:00 9,3 -2,7 3 2 10 5 N 1026,2 13 60 0,0
20.11.2017 11:00:00 6,0 -2,5 2 1 8 4 SSW 1027,4 12 60 0,0
20.11.2017 10:00:00 2,9 -2,7 3 2 7 4 E 1028,3 20 38 0,0
20.11.2017 09:00:00 -1,5 -5,4 2 1 5 3 NNW 1029,5 13 0 0,0
20.11.2017 08:00:00 -1,2 -5,4 4 2 9 5 N 1029,0 20 0 0,0
20.11.2017 07:00:00 -1,5 -5,1 4 2 10 5 N 1028,8 20 0 -
20.11.2017 06:00:00 -1,7 -5,1 3 2 6 3 N 1028,7 20 0 0,0
20.11.2017 05:00:00 -1,1 -5,1 5 3 6 4 N 1028,1 20 0 0,0
20.11.2017 04:00:00 -0,8 -4,8 4 2 8 4 NNW 1028,3 20 0 0,0
20.11.2017 03:00:00 0,9 -4,5 4 2 9 5 NNW 1028,0 20 0 0,0
20.11.2017 02:00:00 1,3 -5,1 5 3 10 5 N 1027,8 20 0 0,0
20.11.2017 01:00:00 1,4 -5,4 5 3 9 5 N 1028,1 20 0 -
20.11.2017 00:00:00 1,7 -5,7 4 2 8 5 NNW 1028,0 20 0 0,0
19.11.2017 23:00:00 1,7 -6,0 3 2 6 3 NNW 1027,9 20 0 0,0
19.11.2017 22:00:00 2,8 -7,8 2 1 6 4 NNW 1027,1 20 0 0,0
19.11.2017 21:00:00 3,6 -7,8 4 2 6 3 NNW 1026,6 20 0 0,0
19.11.2017 20:00:00 4,9 -8,2 2 1 4 2 W 1025,7 20 0 0,0
19.11.2017 19:00:00 6,9 -9,0 1 1 3 2 NW 1024,8 20 0 -
19.11.2017 18:00:00 11,3 -8,2 1 1 6 3 NNE 1023,0 20 29 0,0
19.11.2017 17:00:00 16,0 -12,2 3 2 9 5 E 1021,3 20 60 0,0
19.11.2017 16:00:00 16,3 -9,4 4 2 8 4 N 1021,2 20 60 0,0
19.11.2017 15:00:00 15,5 -8,6 4 2 13 7 SSW 1021,7 20 60 0,0
19.11.2017 14:00:00 14,1 -9,9 3 2 10 5 E 1022,5 20 60 0,0
19.11.2017 13:00:00 11,7 -3,6 4 2 10 5 NNE 1023,9 20 60 -
19.11.2017 12:00:00 9,8 -1,7 2 1 8 4 NNE 1025,3 20 60 0,0
19.11.2017 11:00:00 6,7 0,0 3 2 14 8 NNE 1026,1 20 60 0,0
19.11.2017 10:00:00 3,2 -0,7 6 4 11 6 N 1027,1 20 38 0,0
19.11.2017 09:00:00 -1,5 -3,0 1 1 5 3 NNW 1027,9 20 0 0,0
19.11.2017 08:00:00 -1,7 -3,9 0 0 8 4 N 1027,6 20 0 0,0
19.11.2017 07:00:00 -1,6 -3,6 4 2 8 4 N 1027,2 20 0 -
19.11.2017 06:00:00 0,6 -2,0 4 2 12 6 NNW 1026,2 20 0 0,0
19.11.2017 05:00:00 1,1 -1,7 6 4 11 6 NW 1026,1 20 0 0,0
19.11.2017 04:00:00 1,2 -1,7 4 2 12 7 NNW 1026,2 20 0 0,0
19.11.2017 03:00:00 1,8 -1,2 7 4 11 6 NW 1025,9 20 0 0,0
19.11.2017 02:00:00 2,5 -0,5 1 1 12 7 NW 1025,6 20 0 0,0

tt = Température de l'air
td = dewpoint
ff = Vitesse du vent
fx = gusts
dd = Direction du vent
ppp = reduced air pressure
vv = visibility
sd = Ensoleillement
rr = Quantités de précipitations

stations d'obs. à proximité